University of Illinois Willard Airport Champaign,Urbana US
ICAO: KCMI
IATA: CMI
Category: Medium
Scheduled Services: Yes

Elevation: 755 ft
TransAlt. 18000 ft.

Airport Communications:
CHAMPAIGN APP/DEP:121.35
ATIS:124.85
CLNC DEL:128.75
CTAF:120.4
GND:121.8
ST LOUIS RDO:110
CHAMPAIGN TWR:118.25
UNICOM:122.95

KCMI Zoom In..

Runways:

(A) RW 04 length 6501 ft width 150 ft
---- / hdg 41

(B) RW 14L length 8102 ft width 150 ft
---- / hdg 136

(C) RW 14R length 3817 ft width 75 ft
---- / hdg 136

(D) RW 18 length 5302 ft width 150 ft
---- / hdg 179

(E) RW 22 length 6501 ft width 150 ft
---- / hdg 221

(F) RW 32L length 3817 ft width 75 ft
---- / hdg 316

(G) RW 32R length 8102 ft width 150 ft
ILS 109.10 / hdg 316

(H) RW 36 length 5302 ft width 150 ft
---- / hdg 359

Location; KCMI
Day. 21 / Time. 23.53 Zulu
* Altimeter: 30.28
* Temperature: 14° c. 57.2°f.
* Wind from: 060° Speed 11 kn.
Dewpoint: -02° c.
Visibility: 10 Statute Miles.
Clouds: Clear (automated report).

KCMI 212353Z 06011KT 10SM CLR 14/M02 A3028 RMK AO2 SLP257 T01391017 10183 20139 58002


Wind From 060°
Speed 11 kn.

  YouTube Music Video
 
jpsmedia.com for Web Design  worldairports.se 2018   terms of use